This is the latest recevied weather packets stored in our database for station/object DG7FDL-7. If no packets are shown the sender has not sent any weather packets the latest 10 day(s).
| Time | Temp. | Humidity | Pressure | Rain* | Wind** | Luminosity | Snow |
|---|---|---|---|---|---|---|---|
| 1778113743 | 22.78° C | 43% | 1010.2 hPa | - | - | - | - |
| 1778112843 | 21.67° C | 44% | 1010.1 hPa | - | - | - | - |
| 1778111943 | 22.22° C | 45% | 1010.1 hPa | - | - | - | - |
| 1778111051 | 22.22° C | 44% | 1010 hPa | - | - | - | - |
| 1778110143 | 22.22° C | 44% | 1010 hPa | - | - | - | - |
| 1778109249 | 22.78° C | 43% | 1009.7 hPa | - | - | - | - |
| 1778108349 | 23.89° C | 44% | 1009.7 hPa | - | - | - | - |
| 1778107436 | 25° C | 44% | 1009.6 hPa | - | - | - | - |
| 1778106540 | 25° C | 44% | 1009.5 hPa | - | - | - | - |
| 1778105636 | 24.44° C | 44% | 1009.5 hPa | - | - | - | - |
| 1778104730 | 24.44° C | 45% | 1009.5 hPa | - | - | - | - |
| 1778103838 | 24.44° C | 45% | 1009.4 hPa | - | - | - | - |
| 1778102946 | 24.44° C | 44% | 1009.3 hPa | - | - | - | - |
| 1778102032 | 24.44° C | 44% | 1009.1 hPa | - | - | - | - |
| 1778101131 | 24.44° C | 45% | 1009.3 hPa | - | - | - | - |
| 1778100231 | 24.44° C | 45% | 1009.3 hPa | - | - | - | - |
| 1778099330 | 24.44° C | 45% | 1009.1 hPa | - | - | - | - |
| 1778098436 | 25° C | 44% | 1009.1 hPa | - | - | - | - |
| 1778097530 | 23.89° C | 46% | 1008.8 hPa | - | - | - | - |
| 1778096630 | 23.89° C | 46% | 1008.8 hPa | - | - | - | - |
| 1778095726 | 23.89° C | 46% | 1008.7 hPa | - | - | - | - |
| 1778094829 | 23.89° C | 46% | 1008.4 hPa | - | - | - | - |
| 1778093929 | 23.89° C | 45% | 1008.1 hPa | - | - | - | - |
| 1778093027 | 23.89° C | 45% | 1007.7 hPa | - | - | - | - |
| 1778092126 | 22.78° C | 46% | 1007.5 hPa | - | - | - | - |
* Rain since midnight (hover to see other rain measurements)
** Current wind speed in m/s (hover to see current wind gust speed)